Fallon, NV

12:19 AM PDT on August 29, 2016 (GMT -0700)
Fallon Naval Air Station

Weather History for KNFL - October, 2012

Change the Weather History Date:

Tuesday, October 9, 2012

  Actual Average Record
Temperature  
Mean Temperature 55 °F -  
Max Temperature 73 °F 72 °F 91 °F (1996)
Min Temperature 37 °F 35 °F 22 °F (1941)
Degree Days  
Heating Degree Days 10    
Growing Degree Days 5 (Base 50)    
Moisture  
Dew Point 28 °F    
Average Humidity 38    
Maximum Humidity 65    
Minimum Humidity 15    
Precipitation  
Precipitation 0.00 in - - ()
Sea Level Pressure  
Sea Level Pressure 29.89 in    
Wind  
Wind Speed 4 mph (ESE)    
Max Wind Speed 7 mph    
Max Gust Speed 22 mph    
Visibility 10 miles    
Events      
Averages and records for this station are not official NWS values.
T = Trace of Precipitation, MM = Missing Value Source: NWS Daily Summary

Daily Weather History Graph

Daily Weather History Graph

Search for Another Location

Airport or City:

Trip Planner

Search our weather history database for the weather conditions in past years. The results will help you decide how hot, cold, wet, or windy it might be!

Date:

Astronomy

Oct. 09, 2012 Rise Set
Actual Time 6:59 AM PDT 6:23 PM PDT
Civil Twilight 6:32 AM PDT 6:50 PM PDT
Nautical Twilight 6:01 AM PDT 7:21 PM PDT
Astronomical Twilight 5:30 AM PDT 7:52 PM PDT
Moon 12:42 AM PDT (10/9) 2:52 PM PDT (10/9)
Length of Visible Light 12h 18m
Length of Day
11h 24m
Waning Crescent, 35% of the Moon is Illuminated
Oct 9
Waning Crescent
Oct 15
New
Oct 21
First Quarter
Oct 29
Full
Nov 6
Last Quarter

Hourly Weather History & Observations

Time (PDT) Temp. Windchill Dew Point Humidity Pressure Visibility Wind Dir Wind Speed Gust Speed Precip Events Conditions
12:56 AM 48.0 °F - 24.1 °F 39% 29.90 in 10.0 mi South 5.8 mph - N/A   Clear
1:56 AM 45.0 °F - 24.1 °F 44% 29.91 in 10.0 mi Calm Calm - N/A   Clear
2:56 AM 42.1 °F 37.7 °F 24.1 °F 49% 29.91 in 10.0 mi SSE 6.9 mph - N/A   Clear
3:56 AM 42.1 °F 38.4 °F 28.0 °F 58% 29.91 in 10.0 mi SSW 5.8 mph - N/A   Clear
4:56 AM 37.9 °F 34.4 °F 24.1 °F 57% 29.91 in 10.0 mi SSW 4.6 mph - N/A   Clear
5:56 AM 37.9 °F 35.5 °F 26.1 °F 62% 29.92 in 10.0 mi SSW 3.5 mph - N/A   Clear
6:18 AM 37.4 °F 34.9 °F 26.6 °F 65% 30.00 in 10.0 mi South 3.5 mph - N/A   Partly Cloudy
6:56 AM 39.9 °F 35.1 °F 27.0 °F 60% 29.93 in 10.0 mi South 6.9 mph - N/A   Partly Cloudy
7:56 AM 44.1 °F 42.5 °F 28.9 °F 55% 29.93 in 10.0 mi SE 3.5 mph - N/A   Scattered Clouds
8:56 AM 54.0 °F - 34.0 °F 47% 29.94 in 10.0 mi Calm Calm - N/A   Scattered Clouds
9:56 AM 59.0 °F - 35.1 °F 41% 29.94 in 10.0 mi Calm Calm - N/A   Scattered Clouds
10:56 AM 64.0 °F - 33.1 °F 31% 29.93 in 10.0 mi Variable 4.6 mph - N/A   Scattered Clouds
11:56 AM 68.0 °F - 28.9 °F 23% 29.92 in 10.0 mi Variable 3.5 mph - N/A   Mostly Cloudy
12:56 PM 68.0 °F - 28.9 °F 23% 29.90 in 10.0 mi Calm Calm - N/A   Mostly Cloudy
1:56 PM 71.1 °F - 26.1 °F 19% 29.88 in 10.0 mi Variable 4.6 mph - N/A   Mostly Cloudy
2:56 PM 71.1 °F - 25.0 °F 18% 29.88 in 10.0 mi Calm Calm - N/A   Mostly Cloudy
3:56 PM 73.0 °F - 23.0 °F 15% 29.86 in 10.0 mi East 4.6 mph - N/A   Mostly Cloudy
4:56 PM 71.1 °F - 25.0 °F 18% 29.85 in 10.0 mi NNE 4.6 mph - N/A   Mostly Cloudy
5:56 PM 70.0 °F - 26.1 °F 19% 29.84 in 10.0 mi NNW 4.6 mph - N/A   Mostly Cloudy
6:56 PM 64.0 °F - 30.0 °F 28% 29.84 in 10.0 mi North 5.8 mph - N/A   Mostly Cloudy
7:56 PM 60.1 °F - 28.0 °F 30% 29.85 in 10.0 mi North 5.8 mph - N/A   Mostly Cloudy
8:56 PM 57.0 °F - 28.0 °F 33% 29.85 in 10.0 mi NNE 6.9 mph - N/A   Scattered Clouds
9:56 PM 55.9 °F - 28.0 °F 34% 29.85 in 10.0 mi North 5.8 mph 21.9 mph N/A   Mostly Cloudy
10:56 PM 57.0 °F - 30.0 °F 36% 29.86 in 10.0 mi Calm Calm - N/A   Mostly Cloudy
11:56 PM 57.0 °F - 28.9 °F 34% 29.85 in 10.0 mi North 5.8 mph - N/A   Scattered Clouds